Location: East Horndon
(51.5667°N, 0.3500°E)
Time: 12:19:48
(UTC+00:00)

CZ-2D R/B - Pass Details

Date: 08 November 2025
Orbit: 788 x 842 km, 98.9° (Epoch: 09 December)

Event Time Altitude Azimuth Distance (km) Brightness Sun altitude
Rises 04:51:31 0° 5° (N) 3,345 5.4 -20.8°
Reaches altitude 10° 04:55:01 10° 341° (NNW) 2,397 4.4 -20.3°
Enters shadow 04:55:36 11° 335° (NNW) 2,294 4.2 -20.2°
